Precipitable_Water
0.54 0.54 0.54 0.52 0.52 0.52 0.52 0.54 0.54 0.56 0.56 0.58 0.58 0.60 0.62 0.62 0.64 0.66 0.68 0.70 0.70 0.72 0.74 0.76 0.78 0.80 0.82 0.86 0.89 0.93 0.97 0.99 1.01 1.03 1.03 1.05 1.05 1.05 1.07 1.09 1.11 1.11 1.09 1.07 1.05 1.05 1.07 1.17 1.21 1.17 1.11 1.07 1.03 0.99 0.97 0.99 0.99 0.99 0.97 0.97 0.95 0.93 0.93 0.91 0.91 0.89 0.87 0.84 0.84
0.54 0.56 0.56 0.56 0.56 0.56 0.56 0.56 0.56 0.58 0.60 0.60 0.62 0.64 0.64 0.66 0.68 0.70 0.70 0.72 0.74 0.74 0.76 0.80 0.82 0.84 0.86 0.87 0.93 0.95 0.97 0.99 1.01 1.03 1.05 1.07 1.09 1.09 1.09 1.09 1.09 1.07 1.05 1.03 1.03 1.03 1.05 1.09 1.09 1.07 1.03 0.99 0.97 0.97 0.95 0.97 0.97 0.97 0.95 0.95 0.93 0.93 0.91 0.91 0.89 0.87 0.86 0.84 0.86
0.56 0.58 0.58 0.56 0.56 0.56 0.56 0.56 0.56 0.58 0.60 0.62 0.64 0.66 0.66 0.68 0.70 0.72 0.72 0.74 0.76 0.78 0.78 0.80 0.82 0.84 0.86 0.89 0.93 0.95 0.97 0.99 0.99 1.01 1.03 1.05 1.07 1.07 1.07 1.07 1.07 1.05 1.05 1.05 1.05 1.05 1.05 1.07 1.03 0.99 0.97 0.95 0.93 0.93 0.93 0.95 0.95 0.93 0.93 0.93 0.91 0.91 0.89 0.87 0.86 0.86 0.86 0.86 0.87
0.58 0.58 0.58 0.56 0.56 0.56 0.56 0.56 0.58 0.60 0.62 0.64 0.64 0.66 0.68 0.70 0.72 0.74 0.74 0.76 0.78 0.78 0.80 0.82 0.84 0.86 0.87 0.89 0.89 0.93 0.97 0.97 0.99 0.99 0.99 0.99 1.01 1.03 1.05 1.09 1.09 1.09 1.07 1.03 1.03 1.03 1.03 1.03 1.01 0.97 0.93 0.93 0.91 0.91 0.91 0.91 0.91 0.91 0.91 0.89 0.89 0.87 0.87 0.84 0.84 0.86 0.86 0.86 0.82
0.60 0.60 0.60 0.58 0.58 0.58 0.58 0.60 0.60 0.60 0.62 0.64 0.64 0.66 0.68 0.70 0.72 0.74 0.76 0.76 0.78 0.78 0.80 0.84 0.84 0.86 0.87 0.89 0.89 0.91 0.93 0.95 0.95 0.95 0.95 0.95 1.01 1.05 1.11 1.13 1.11 1.07 1.03 1.01 1.01 1.03 1.01 0.99 0.97 0.95 0.93 0.91 0.91 0.89 0.89 0.89 0.89 0.89 0.87 0.87 0.87 0.86 0.86 0.84 0.84 0.84 0.84 0.82 0.76
0.62 0.62 0.62 0.62 0.60 0.60 0.62 0.62 0.62 0.62 0.64 0.64 0.64 0.64 0.66 0.68 0.70 0.72 0.74 0.74 0.76 0.78 0.82 0.84 0.86 0.86 0.87 0.87 0.89 0.89 0.91 0.91 0.93 0.93 0.95 0.97 1.05 1.09 1.11 1.07 1.05 1.01 1.01 1.01 1.03 1.03 1.01 0.97 0.95 0.93 0.91 0.91 0.89 0.89 0.89 0.89 0.89 0.87 0.87 0.86 0.86 0.86 0.84 0.84 0.82 0.82 0.80 0.78 0.72
0.64 0.64 0.64 0.64 0.64 0.64 0.64 0.64 0.64 0.64 0.64 0.64 0.64 0.64 0.64 0.66 0.68 0.70 0.72 0.74 0.76 0.80 0.82 0.84 0.86 0.86 0.86 0.87 0.87 0.87 0.89 0.89 0.91 0.93 0.97 1.01 1.03 1.05 1.03 0.99 0.99 1.01 1.03 1.07 1.07 1.01 0.97 0.95 0.93 0.91 0.91 0.89 0.89 0.89 0.89 0.89 0.89 0.86 0.84 0.82 0.82 0.82 0.82 0.80 0.80 0.78 0.74 0.72 0.66
0.68 0.66 0.66 0.66 0.66 0.66 0.66 0.66 0.66 0.66 0.66 0.64 0.64 0.64 0.64 0.66 0.68 0.70 0.72 0.74 0.76 0.76 0.78 0.80 0.84 0.86 0.86 0.86 0.87 0.87 0.89 0.89 0.91 0.93 0.97 0.99 0.99 0.99 0.99 0.97 0.99 0.99 1.01 1.03 0.99 0.95 0.93 0.93 0.91 0.89 0.89 0.89 0.87 0.87 0.87 0.87 0.86 0.84 0.80 0.78 0.78 0.78 0.78 0.76 0.74 0.74 0.70 0.66 0.64
0.70 0.70 0.70 0.68 0.68 0.68 0.68 0.66 0.66 0.66 0.64 0.64 0.64 0.66 0.66 0.68 0.68 0.70 0.70 0.72 0.72 0.74 0.76 0.78 0.80 0.82 0.84 0.84 0.86 0.86 0.87 0.89 0.89 0.91 0.91 0.93 0.93 0.95 0.95 0.95 0.95 0.95 0.95 0.95 0.91 0.89 0.89 0.87 0.87 0.87 0.87 0.86 0.86 0.86 0.86 0.84 0.82 0.78 0.76 0.74 0.72 0.72 0.70 0.70 0.68 0.68 0.66 0.62 0.60
0.68 0.70 0.70 0.70 0.70 0.70 0.70 0.68 0.68 0.66 0.66 0.64 0.66 0.66 0.66 0.68 0.68 0.68 0.68 0.70 0.72 0.72 0.72 0.74 0.78 0.78 0.80 0.80 0.82 0.82 0.84 0.86 0.86 0.86 0.87 0.87 0.87 0.87 0.87 0.87 0.87 0.87 0.87 0.87 0.86 0.84 0.84 0.84 0.84 0.82 0.84 0.84 0.82 0.82 0.80 0.80 0.74 0.70 0.70 0.68 0.68 0.66 0.64 0.64 0.62 0.62 0.62 0.60 0.60
0.68 0.68 0.70 0.70 0.70 0.70 0.70 0.70 0.68 0.68 0.68 0.66 0.68 0.68 0.68 0.68 0.68 0.70 0.70 0.70 0.70 0.70 0.70 0.72 0.74 0.76 0.76 0.76 0.78 0.78 0.78 0.80 0.80 0.80 0.80 0.82 0.82 0.82 0.82 0.82 0.82 0.82 0.80 0.78 0.78 0.78 0.78 0.78 0.76 0.76 0.76 0.76 0.76 0.76 0.74 0.72 0.68 0.64 0.64 0.62 0.62 0.60 0.58 0.58 0.60 0.60 0.60 0.58 0.58
0.68 0.68 0.70 0.70 0.70 0.70 0.70 0.68 0.68 0.68 0.68 0.68 0.68 0.68 0.68 0.70 0.70 0.70 0.72 0.72 0.70 0.70 0.72 0.72 0.72 0.72 0.72 0.74 0.74 0.74 0.74 0.74 0.74 0.74 0.74 0.74 0.74 0.74 0.74 0.74 0.76 0.76 0.74 0.72 0.72 0.72 0.72 0.70 0.70 0.68 0.68 0.68 0.68 0.68 0.68 0.66 0.62 0.60 0.60 0.58 0.58 0.58 0.56 0.56 0.58 0.58 0.58 0.58 0.58
0.70 0.70 0.70 0.70 0.70 0.70 0.70 0.68 0.68 0.68 0.68 0.68 0.70 0.70 0.70 0.70 0.72 0.72 0.72 0.72 0.72 0.72 0.72 0.74 0.74 0.74 0.72 0.72 0.72 0.72 0.72 0.72 0.72 0.70 0.70 0.70 0.70 0.70 0.70 0.70 0.70 0.68 0.68 0.68 0.68 0.68 0.68 0.66 0.66 0.64 0.64 0.64 0.64 0.64 0.64 0.62 0.60 0.58 0.56 0.56 0.54 0.54 0.54 0.54 0.56 0.56 0.56 0.56 0.56
0.70 0.70 0.70 0.70 0.70 0.70 0.70 0.70 0.68 0.68 0.68 0.68 0.70 0.70 0.70 0.70 0.72 0.72 0.72 0.72 0.72 0.72 0.72 0.72 0.74 0.72 0.72 0.72 0.72 0.72 0.70 0.70 0.70 0.68 0.68 0.68 0.68 0.68 0.68 0.66 0.66 0.66 0.66 0.66 0.66 0.66 0.66 0.66 0.66 0.64 0.64 0.64 0.64 0.64 0.62 0.60 0.58 0.56 0.54 0.54 0.52 0.52 0.52 0.54 0.54 0.54 0.54 0.56 0.56
0.70 0.72 0.72 0.72 0.70 0.70 0.70 0.70 0.68 0.68 0.68 0.68 0.70 0.70 0.70 0.70 0.70 0.72 0.72 0.72 0.72 0.72 0.72 0.72 0.72 0.72 0.72 0.70 0.70 0.70 0.68 0.68 0.68 0.66 0.66 0.66 0.66 0.64 0.64 0.64 0.64 0.64 0.64 0.64 0.66 0.66 0.66 0.66 0.66 0.66 0.64 0.62 0.62 0.60 0.58 0.56 0.56 0.54 0.54 0.52 0.52 0.52 0.52 0.52 0.54 0.54 0.54 0.54 0.54
0.70 0.70 0.70 0.70 0.70 0.70 0.68 0.68 0.68 0.68 0.68 0.68 0.68 0.70 0.70 0.70 0.70 0.70 0.70 0.70 0.70 0.70 0.70 0.70 0.70 0.70 0.70 0.70 0.68 0.68 0.68 0.66 0.66 0.64 0.64 0.64 0.64 0.64 0.64 0.64 0.64 0.64 0.64 0.64 0.66 0.66 0.66 0.66 0.66 0.64 0.62 0.60 0.58 0.56 0.56 0.54 0.54 0.54 0.54 0.52 0.52 0.52 0.52 0.52 0.54 0.54 0.56 0.56 0.56
0.70 0.70 0.70 0.68 0.68 0.68 0.68 0.68 0.68 0.68 0.68 0.68 0.68 0.70 0.70 0.70 0.70 0.70 0.70 0.70 0.70 0.68 0.68 0.68 0.68 0.68 0.68 0.68 0.68 0.66 0.66 0.66 0.64 0.64 0.64 0.64 0.64 0.64 0.64 0.64 0.64 0.64 0.64 0.64 0.64 0.64 0.64 0.64 0.64 0.62 0.60 0.58 0.56 0.56 0.54 0.54 0.54 0.54 0.52 0.52 0.52 0.52 0.54 0.54 0.56 0.56 0.56 0.56 0.56
0.68 0.68 0.68 0.68 0.68 0.66 0.66 0.68 0.68 0.68 0.68 0.68 0.68 0.68 0.68 0.70 0.68 0.68 0.68 0.68 0.68 0.68 0.66 0.66 0.66 0.66 0.66 0.66 0.66 0.66 0.66 0.64 0.64 0.64 0.64 0.64 0.64 0.64 0.64 0.64 0.64 0.64 0.64 0.64 0.62 0.62 0.62 0.62 0.60 0.60 0.58 0.58 0.56 0.56 0.54 0.54 0.54 0.52 0.52 0.52 0.52 0.54 0.54 0.56 0.56 0.56 0.56 0.56 0.56
0.66 0.66 0.66 0.66 0.66 0.66 0.66 0.68 0.68 0.68 0.68 0.68 0.68 0.68 0.68 0.68 0.68 0.68 0.68 0.68 0.66 0.66 0.66 0.66 0.66 0.66 0.66 0.64 0.64 0.64 0.64 0.64 0.64 0.64 0.64 0.64 0.64 0.64 0.64 0.64 0.64 0.64 0.64 0.62 0.62 0.62 0.60 0.60 0.58 0.58 0.56 0.56 0.56 0.56 0.54 0.54 0.54 0.52 0.52 0.54 0.54 0.54 0.56 0.56 0.56 0.56 0.56 0.56 0.54
0.66 0.66 0.66 0.66 0.66 0.66 0.66 0.68 0.68 0.68 0.68 0.68 0.68 0.68 0.66 0.66 0.66 0.66 0.66 0.66 0.66 0.66 0.66 0.64 0.64 0.64 0.64 0.64 0.64 0.64 0.64 0.64 0.64 0.64 0.64 0.64 0.64 0.64 0.64 0.64 0.62 0.62 0.62 0.62 0.62 0.60 0.60 0.58 0.58 0.56 0.56 0.56 0.56 0.54 0.54 0.52 0.52 0.52 0.54 0.54 0.54 0.56 0.56 0.58 0.58 0.56 0.56 0.56 0.56
0.66 0.66 0.66 0.66 0.68 0.68 0.68 0.68 0.68 0.68 0.68 0.66 0.66 0.66 0.66 0.66 0.66 0.66 0.66 0.66 0.66 0.66 0.66 0.64 0.64 0.64 0.64 0.64 0.62 0.64 0.64 0.64 0.64 0.64 0.64 0.64 0.64 0.64 0.64 0.64 0.62 0.62 0.62 0.62 0.62 0.60 0.60 0.58 0.56 0.56 0.56 0.56 0.54 0.54 0.54 0.52 0.52 0.54 0.54 0.56 0.56 0.56 0.56 0.58 0.56 0.56 0.56 0.56 0.56
0.66 0.68 0.68 0.68 0.68 0.68 0.68 0.68 0.68 0.68 0.66 0.66 0.66 0.66 0.66 0.66 0.66 0.66 0.66 0.66 0.66 0.66 0.64 0.64 0.64 0.64 0.62 0.62 0.62 0.62 0.64 0.64 0.64 0.64 0.64 0.64 0.64 0.64 0.64 0.64 0.64 0.62 0.62 0.62 0.60 0.60 0.58 0.56 0.56 0.56 0.56 0.56 0.54 0.54 0.52 0.52 0.52 0.54 0.54 0.56 0.56 0.56 0.58 0.58 0.58 0.56 0.56 0.56 0.58
0.68 0.68 0.68 0.68 0.68 0.68 0.68 0.68 0.68 0.66 0.66 0.66 0.66 0.66 0.64 0.64 0.64 0.64 0.64 0.66 0.66 0.64 0.64 0.64 0.64 0.64 0.64 0.64 0.64 0.64 0.64 0.64 0.64 0.66 0.66 0.66 0.66 0.66 0.64 0.64 0.64 0.62 0.62 0.62 0.60 0.58 0.58 0.56 0.56 0.56 0.56 0.54 0.54 0.52 0.52 0.52 0.54 0.54 0.56 0.56 0.56 0.58 0.58 0.58 0.58 0.58 0.58 0.58 0.58
0.70 0.70 0.70 0.70 0.70 0.68 0.68 0.68 0.66 0.66 0.64 0.64 0.64 0.64 0.64 0.64 0.64 0.64 0.66 0.66 0.66 0.66 0.66 0.66 0.66 0.66 0.66 0.66 0.66 0.66 0.66 0.66 0.66 0.66 0.66 0.66 0.66 0.66 0.66 0.66 0.64 0.64 0.62 0.62 0.60 0.60 0.58 0.56 0.56 0.56 0.54 0.54 0.52 0.52 0.54 0.54 0.56 0.56 0.56 0.58 0.58 0.58 0.56 0.56 0.58 0.56 0.56 0.56 0.56
0.70 0.70 0.70 0.68 0.68 0.68 0.66 0.66 0.64 0.64 0.64 0.64 0.64 0.64 0.64 0.64 0.64 0.66 0.66 0.66 0.66 0.66 0.68 0.68 0.68 0.68 0.68 0.68 0.68 0.68 0.68 0.68 0.68 0.66 0.66 0.66 0.66 0.66 0.66 0.66 0.66 0.64 0.64 0.62 0.62 0.60 0.58 0.58 0.58 0.56 0.56 0.54 0.54 0.54 0.56 0.56 0.58 0.58 0.58 0.58 0.58 0.56 0.56 0.56 0.56 0.54 0.54 0.54 0.52
0.70 0.70 0.68 0.68 0.66 0.66 0.66 0.64 0.64 0.62 0.64 0.64 0.64 0.64 0.66 0.66 0.66 0.66 0.68 0.68 0.68 0.68 0.68 0.68 0.68 0.68 0.68 0.68 0.70 0.70 0.70 0.70 0.68 0.68 0.68 0.68 0.68 0.68 0.68 0.66 0.66 0.64 0.64 0.62 0.62 0.60 0.60 0.58 0.58 0.56 0.56 0.54 0.56 0.58 0.58 0.60 0.60 0.60 0.60 0.58 0.56 0.56 0.54 0.52 0.50 0.50 0.48 0.48 0.46
0.70 0.68 0.68 0.66 0.66 0.64 0.64 0.64 0.62 0.64 0.64 0.64 0.64 0.66 0.66 0.68 0.68 0.68 0.68 0.68 0.68 0.68 0.70 0.70 0.70 0.70 0.70 0.70 0.70 0.70 0.68 0.70 0.68 0.68 0.68 0.68 0.68 0.66 0.66 0.66 0.66 0.66 0.64 0.62 0.62 0.60 0.60 0.58 0.58 0.56 0.56 0.56 0.60 0.60 0.60 0.60 0.60 0.60 0.58 0.58 0.54 0.52 0.50 0.48 0.44 0.42 0.42 0.42 0.40
0.68 0.66 0.66 0.66 0.64 0.64 0.62 0.62 0.64 0.64 0.64 0.66 0.66 0.66 0.68 0.68 0.68 0.68 0.68 0.68 0.68 0.70 0.70 0.70 0.70 0.70 0.70 0.70 0.70 0.70 0.70 0.70 0.70 0.70 0.68 0.68 0.68 0.66 0.66 0.66 0.66 0.66 0.64 0.62 0.60 0.60 0.58 0.58 0.58 0.58 0.60 0.62 0.62 0.62 0.60 0.60 0.58 0.56 0.56 0.54 0.48 0.44 0.42 0.40 0.38 0.36 0.36 0.36 0.36
0.66 0.66 0.64 0.64 0.62 0.62 0.62 0.62 0.64 0.66 0.66 0.66 0.68 0.68 0.68 0.68 0.68 0.68 0.68 0.68 0.68 0.68 0.68 0.70 0.70 0.70 0.70 0.70 0.70 0.70 0.70 0.70 0.70 0.70 0.68 0.68 0.68 0.66 0.66 0.66 0.66 0.64 0.64 0.62 0.60 0.60 0.58 0.60 0.62 0.62 0.64 0.64 0.62 0.62 0.58 0.54 0.52 0.50 0.50 0.48 0.40 0.36 0.34 0.34 0.34 0.32 0.32 0.32 0.32
0.64 0.64 0.64 0.62 0.62 0.62 0.64 0.64 0.66 0.66 0.68 0.68 0.68 0.68 0.68 0.68 0.68 0.68 0.68 0.68 0.68 0.70 0.70 0.70 0.70 0.70 0.68 0.70 0.70 0.70 0.70 0.70 0.70 0.68 0.68 0.68 0.66 0.66 0.66 0.66 0.64 0.64 0.62 0.62 0.60 0.60 0.62 0.64 0.64 0.64 0.62 0.60 0.58 0.56 0.52 0.50 0.46 0.42 0.38 0.32 0.32 0.30 0.30 0.30 0.30 0.30 0.28 0.28 0.28
0.64 0.64 0.64 0.62 0.62 0.64 0.64 0.66 0.66 0.68 0.68 0.68 0.68 0.68 0.68 0.68 0.68 0.68 0.68 0.70 0.70 0.70 0.70 0.70 0.70 0.68 0.68 0.70 0.70 0.70 0.68 0.68 0.68 0.68 0.68 0.66 0.66 0.66 0.66 0.64 0.64 0.62 0.62 0.62 0.60 0.62 0.64 0.62 0.60 0.58 0.54 0.52 0.48 0.44 0.42 0.40 0.38 0.34 0.32 0.28 0.28 0.28 0.26 0.26 0.26 0.26 0.26 0.24 0.24
0.64 0.64 0.64 0.64 0.64 0.64 0.66 0.66 0.68 0.68 0.68 0.68 0.68 0.68 0.68 0.68 0.68 0.68 0.70 0.70 0.70 0.70 0.68 0.68 0.68 0.68 0.68 0.68 0.68 0.68 0.68 0.68 0.68 0.68 0.68 0.66 0.66 0.64 0.64 0.64 0.62 0.62 0.62 0.62 0.62 0.62 0.60 0.54 0.50 0.46 0.42 0.40 0.36 0.34 0.34 0.32 0.30 0.30 0.28 0.24 0.24 0.23 0.23 0.23 0.23 0.23 0.23 0.23 0.21
0.64 0.64 0.64 0.64 0.64 0.66 0.66 0.66 0.68 0.68 0.68 0.68 0.68 0.68 0.68 0.68 0.68 0.68 0.68 0.68 0.68 0.68 0.68 0.68 0.68 0.68 0.68 0.68 0.66 0.66 0.66 0.68 0.68 0.68 0.66 0.66 0.64 0.64 0.62 0.62 0.62 0.62 0.62 0.60 0.56 0.52 0.48 0.40 0.38 0.34 0.32 0.32 0.30 0.28 0.28 0.26 0.26 0.23 0.21 0.21 0.21 0.19 0.19 0.19 0.19 0.19 0.19 0.19 0.17
0.64 0.64 0.64 0.64 0.64 0.66 0.66 0.66 0.68 0.68 0.68 0.68 0.68 0.68 0.68 0.68 0.68 0.68 0.68 0.68 0.68 0.68 0.68 0.68 0.68 0.66 0.66 0.66 0.66 0.66 0.66 0.66 0.66 0.66 0.66 0.64 0.62 0.62 0.60 0.60 0.60 0.60 0.56 0.46 0.42 0.40 0.36 0.34 0.30 0.28 0.26 0.24 0.24 0.23 0.23 0.23 0.21 0.19 0.17 0.17 0.17 0.17 0.17 0.17 0.17 0.17 0.17 0.17 0.15
0.64 0.64 0.64 0.64 0.64 0.66 0.66 0.66 0.66 0.68 0.66 0.66 0.66 0.68 0.68 0.68 0.68 0.66 0.66 0.66 0.66 0.66 0.66 0.66 0.66 0.66 0.66 0.66 0.66 0.66 0.64 0.64 0.64 0.64 0.62 0.62 0.60 0.58 0.56 0.56 0.54 0.50 0.44 0.34 0.30 0.28 0.26 0.24 0.24 0.23 0.21 0.19 0.19 0.19 0.17 0.17 0.17 0.15 0.15 0.15 0.15 0.15 0.15 0.15 0.15 0.15 0.15 0.15 0.15
0.64 0.64 0.64 0.64 0.64 0.66 0.66 0.66 0.66 0.66 0.66 0.66 0.66 0.66 0.66 0.66 0.66 0.66 0.66 0.66 0.66 0.64 0.64 0.64 0.64 0.64 0.64 0.64 0.64 0.64 0.62 0.62 0.62 0.60 0.58 0.58 0.54 0.50 0.46 0.44 0.42 0.34 0.26 0.24 0.24 0.23 0.21 0.21 0.21 0.19 0.19 0.17 0.17 0.15 0.15 0.15 0.15 0.15 0.15 0.15 0.15 0.15 0.15 0.15 0.15 0.15 0.15 0.17 0.17
0.66 0.66 0.66 0.66 0.66 0.66 0.66 0.66 0.66 0.66 0.66 0.66 0.64 0.64 0.64 0.64 0.64 0.64 0.64 0.64 0.64 0.62 0.62 0.62 0.62 0.62 0.62 0.62 0.60 0.60 0.60 0.58 0.56 0.52 0.50 0.46 0.44 0.38 0.34 0.30 0.28 0.24 0.23 0.23 0.21 0.21 0.21 0.21 0.19 0.19 0.19 0.17 0.17 0.17 0.15 0.15 0.15 0.15 0.15 0.15 0.15 0.15 0.15 0.15 0.17 0.17 0.17 0.19 0.19
0.66 0.66 0.66 0.66 0.66 0.66 0.66 0.66 0.64 0.64 0.64 0.64 0.64 0.62 0.62 0.62 0.62 0.62 0.62 0.62 0.62 0.60 0.60 0.60 0.60 0.60 0.58 0.58 0.56 0.54 0.52 0.48 0.46 0.42 0.38 0.34 0.32 0.28 0.26 0.23 0.23 0.23 0.23 0.23 0.23 0.23 0.21 0.21 0.21 0.19 0.19 0.19 0.17 0.17 0.17 0.17 0.17 0.15 0.15 0.15 0.15 0.17 0.17 0.17 0.17 0.17 0.17 0.19 0.21
0.68 0.68 0.66 0.66 0.66 0.66 0.64 0.64 0.62 0.62 0.62 0.62 0.60 0.60 0.60 0.60 0.60 0.60 0.62 0.62 0.60 0.60 0.58 0.58 0.56 0.56 0.54 0.50 0.48 0.44 0.40 0.38 0.34 0.30 0.28 0.26 0.24 0.23 0.23 0.23 0.23 0.24 0.24 0.24 0.24 0.23 0.23 0.23 0.21 0.21 0.21 0.19 0.19 0.17 0.17 0.17 0.17 0.17 0.17 0.17 0.17 0.17 0.17 0.17 0.17 0.17 0.19 0.19 0.19
0.68 0.66 0.66 0.66 0.64 0.64 0.64 0.62 0.60 0.60 0.60 0.60 0.60 0.60 0.60 0.60 0.60 0.60 0.60 0.60 0.58 0.58 0.56 0.54 0.50 0.48 0.44 0.40 0.36 0.34 0.30 0.28 0.26 0.24 0.24 0.23 0.23 0.23 0.23 0.23 0.24 0.24 0.24 0.26 0.24 0.24 0.24 0.23 0.23 0.21 0.21 0.21 0.19 0.19 0.19 0.19 0.19 0.19 0.17 0.17 0.17 0.17 0.17 0.17 0.17 0.17 0.17 0.19 0.19
0.66 0.66 0.64 0.64 0.62 0.62 0.60 0.58 0.58 0.58 0.58 0.58 0.58 0.58 0.58 0.58 0.58 0.58 0.56 0.56 0.54 0.52 0.50 0.48 0.42 0.38 0.34 0.32 0.28 0.26 0.24 0.24 0.23 0.23 0.23 0.23 0.23 0.24 0.24 0.24 0.24 0.24 0.26 0.26 0.26 0.26 0.24 0.24 0.24 0.23 0.23 0.21 0.21 0.21 0.21 0.21 0.19 0.19 0.19 0.19 0.19 0.19 0.17 0.17 0.17 0.19 0.19 0.19 0.19
Wind_Speed
24 24 25 25 25 25 25 25 25 25 25 25 25 25 25 25 25 25 25 25 24 24 25 25 25 25 25 25 25 25 25 25 25 25 25 25 25 25 25 24 24 24 24 24 24 24 24 23 24 24 25 25 25 25 25 25 25 26 26 26 26 26 26 26 26 27 27 28 28
23 24 24 24 25 25 25 25 25 25 25 25 25 25 24 24 24 24 24 24 24 24 24 24 24 24 24 24 24 24 24 24 24 24 24 24 24 24 24 23 23 23 23 23 24 24 23 23 23 24 24 25 25 25 25 25 25 25 25 26 26 26 26 26 26 27 27 28 28
23 23 24 24 24 24 24 24 24 25 24 24 24 24 24 24 24 24 24 24 24 24 24 24 24 24 24 24 24 24 24 23 23 23 23 23 23 23 23 23 23 23 23 23 23 23 23 23 23 23 24 24 24 25 25 25 26 25 26 26 26 26 26 26 27 27 27 28 28
23 23 23 23 24 24 24 24 24 24 24 24 24 24 24 25 25 24 24 24 24 24 24 24 24 24 24 24 23 23 23 23 23 23 23 23 23 23 23 22 22 22 22 22 22 22 22 23 23 23 24 24 24 25 25 26 26 26 26 26 27 27 27 27 27 28 28 28 28
23 23 23 23 24 24 24 24 24 24 24 25 25 25 25 25 25 25 25 25 24 24 24 24 24 24 24 23 23 23 23 23 23 23 23 23 23 23 22 22 22 22 22 22 22 22 22 23 23 23 24 24 25 25 26 26 26 26 27 27 27 27 27 27 27 27 28 28 28
23 23 24 24 24 24 24 24 24 24 25 25 25 25 25 25 25 25 25 25 24 24 24 24 24 24 23 23 23 23 23 23 23 23 23 23 22 22 22 22 22 22 22 22 22 22 23 23 23 24 24 25 25 25 26 26 26 26 27 27 27 27 27 27 27 27 27 27 27
24 24 24 24 24 24 24 24 24 24 25 25 25 25 25 25 25 25 25 25 25 24 24 24 24 23 23 23 23 23 23 23 23 23 23 22 22 22 22 22 22 23 23 23 23 23 23 24 24 24 25 25 25 26 26 26 26 27 27 27 27 27 27 27 27 27 27 26 26
24 24 24 24 24 24 24 24 24 24 24 24 24 24 24 25 25 25 25 25 24 24 24 24 24 23 23 23 22 22 22 22 23 22 22 22 22 22 22 22 23 23 23 23 23 23 24 24 24 25 25 25 26 26 26 26 26 27 27 27 27 27 27 26 26 26 26 25 25
24 24 24 24 24 24 24 24 24 24 24 24 24 24 24 24 24 24 24 24 24 24 24 24 23 23 23 23 22 22 22 22 22 22 22 22 22 22 23 23 23 23 23 23 24 24 24 24 25 25 25 26 26 26 26 27 27 27 27 27 26 26 26 26 25 25 25 25 25
25 25 25 25 25 25 25 25 25 24 24 24 24 24 24 24 24 24 24 24 24 24 23 23 23 23 23 23 23 22 22 22 22 22 22 23 23 23 23 23 23 23 24 24 24 24 25 25 25 26 26 26 26 27 27 27 27 27 26 26 26 25 25 25 24 24 24 24 24
25 25 25 25 25 25 25 25 25 25 25 24 24 24 24 24 24 24 24 24 24 23 23 23 23 23 23 23 23 23 23 23 23 23 23 23 23 23 23 23 24 24 24 24 25 25 25 25 26 26 26 26 27 27 27 26 26 26 25 25 24 24 24 24 23 23 23 24 24
25 25 25 25 25 25 25 25 25 25 25 25 25 24 24 24 24 24 24 24 23 23 23 23 23 23 23 23 23 23 23 23 23 23 23 23 23 23 23 24 24 24 24 25 25 25 26 26 26 26 26 26 26 26 26 26 25 25 24 23 23 23 23 23 23 23 23 24 24
25 25 25 25 25 25 25 25 25 25 25 24 24 24 24 24 24 24 24 24 23 23 23 23 23 23 23 23 23 23 23 23 23 23 23 24 24 24 24 24 25 25 25 25 25 26 26 26 26 26 26 26 26 25 25 24 24 23 23 22 22 22 22 22 23 23 23 23 23
25 25 25 25 25 25 25 24 24 24 24 24 24 24 24 24 24 23 23 23 23 23 23 23 24 24 24 24 24 24 24 24 24 24 24 24 25 25 25 25 25 26 26 26 26 26 26 26 25 25 25 25 24 24 24 23 22 22 22 22 22 22 22 22 22 22 23 23 23
24 24 24 24 24 24 24 24 24 23 23 23 23 23 23 23 23 23 23 23 23 23 23 23 23 23 23 23 24 24 24 24 24 24 25 25 25 25 25 25 25 26 26 26 26 25 25 25 25 24 24 24 23 23 22 22 21 21 21 21 21 21 21 22 22 22 22 22 22
24 24 24 24 23 23 23 23 23 23 23 22 22 22 22 23 23 23 23 23 23 23 23 23 23 23 23 23 23 24 24 24 24 25 25 25 25 25 25 25 25 25 25 25 25 25 24 24 23 23 22 22 22 21 21 21 20 20 21 21 21 21 21 21 22 22 22 22 22
23 23 23 23 23 22 22 22 22 22 22 22 22 22 22 22 22 22 22 22 23 23 23 23 23 23 23 23 23 24 24 24 24 24 24 24 24 24 24 24 24 24 24 24 23 23 22 22 22 21 21 21 20 20 20 20 20 20 20 20 20 20 21 21 21 21 21 21 21
23 23 22 22 22 22 22 22 22 22 22 22 22 22 22 22 22 22 22 22 22 22 22 23 23 23 23 23 23 23 23 23 23 23 23 23 24 24 23 23 23 23 22 22 22 21 21 20 20 20 20 19 19 19 19 19 19 19 20 20 20 20 20 20 20 20 21 21 21
22 22 22 21 21 21 21 21 21 21 21 21 21 22 22 22 22 22 22 22 22 22 22 22 22 22 22 22 22 22 22 22 22 22 22 22 22 22 22 21 21 21 21 20 20 20 19 19 19 19 19 19 19 19 19 19 19 19 19 19 19 19 19 19 19 20 20 20 20
22 21 21 21 21 21 21 21 21 21 21 21 21 21 21 21 21 21 21 21 21 21 21 21 21 21 21 21 21 21 21 21 21 21 21 21 20 20 20 20 20 19 19 19 19 19 19 19 19 19 18 18 18 18 18 18 18 18 18 18 18 18 19 19 19 19 19 19 19
21 21 21 21 21 21 21 21 21 21 21 21 21 21 21 21 21 20 20 20 20 20 20 20 20 19 19 20 20 20 20 20 20 19 19 19 19 19 19 19 18 18 18 18 18 18 18 18 18 18 18 18 17 17 17 17 17 17 18 18 18 18 18 18 18 18 18 19 19
21 21 21 21 21 21 21 21 21 21 21 20 20 20 20 20 20 19 19 19 19 19 19 18 18 18 19 19 19 19 19 19 18 18 18 18 18 18 18 18 18 18 18 18 18 18 18 17 17 17 17 17 17 17 17 17 17 17 17 17 17 17 17 17 17 18 18 18 18
21 21 21 21 21 20 20 20 20 20 20 20 19 19 19 19 19 18 18 18 18 18 18 18 18 18 18 18 18 18 18 18 18 18 17 17 17 17 17 17 17 17 17 17 17 17 17 17 16 16 16 16 16 16 16 16 16 16 16 16 16 16 16 16 17 17 17 17 17
20 20 20 20 20 20 20 20 19 19 19 19 18 18 18 18 17 17 17 17 17 17 17 18 17 17 17 17 17 17 17 17 17 17 17 16 16 17 17 17 17 17 17 17 16 16 16 16 16 15 15 15 15 15 15 15 15 15 15 15 15 15 15 16 16 16 16 16 17
20 20 20 20 20 19 19 19 18 18 18 17 17 17 17 17 16 16 16 16 17 17 17 17 17 17 17 17 17 16 16 16 16 16 16 16 16 16 16 16 16 16 16 16 15 15 15 15 15 15 15 15 14 15 15 15 15 15 15 14 14 14 14 14 15 15 15 16 16
20 19 19 19 19 18 18 18 17 17 17 17 16 16 16 16 16 16 16 16 16 16 16 16 16 16 16 16 16 16 16 16 16 16 16 16 16 16 16 16 16 16 15 15 14 14 14 13 13 14 14 14 14 14 14 14 14 13 13 13 13 13 13 14 14 15 15 16 16
19 18 18 18 17 17 17 17 16 16 16 16 15 15 15 15 15 15 15 15 15 15 15 15 15 15 15 15 15 15 15 15 15 15 15 15 15 15 15 15 15 15 14 13 13 13 12 12 12 12 13 13 13 13 13 12 12 12 12 12 12 12 13 13 14 15 15 16 17
18 17 17 17 16 16 16 16 16 15 15 15 15 15 15 15 15 14 14 15 15 15 15 15 15 15 15 15 15 14 14 14 15 14 14 14 14 14 14 14 13 13 12 12 11 11 11 11 11 11 11 12 12 12 11 11 11 11 11 11 12 12 13 14 15 15 16 17 17
16 16 16 15 15 15 15 15 15 15 15 15 15 15 14 14 14 14 14 14 14 14 14 14 14 15 14 14 14 14 14 14 14 13 13 13 13 12 12 12 12 11 11 10 10 10 10 10 10 10 10 10 10 10 10 10 10 11 11 11 12 13 14 14 15 16 16 17 17
16 15 15 15 15 15 15 15 15 15 15 14 14 14 14 14 14 14 14 14 14 14 14 14 14 14 14 13 13 13 13 13 13 12 12 11 11 11 11 11 10 10 10 9 9 9 9 9 9 9 9 9 9 9 10 10 10 11 11 12 13 13 14 15 15 16 16 17 17
15 15 15 15 15 15 15 15 14 14 14 14 14 14 14 14 14 14 14 14 14 14 14 14 13 13 13 13 13 12 12 12 11 11 10 10 10 10 10 10 10 9 9 9 9 8 8 8 8 7 7 8 8 9 10 10 11 11 12 12 13 14 14 15 15 15 16 16 16
15 15 15 15 14 14 14 14 14 14 13 13 13 13 13 13 13 13 13 13 13 13 13 12 12 12 12 12 12 11 11 11 10 10 9 9 9 9 9 9 9 9 8 8 8 7 7 7 7 7 7 8 8 9 10 10 11 11 12 13 13 14 14 15 15 15 15 15 15
15 15 14 14 14 14 14 14 13 13 13 13 13 13 13 13 13 13 12 12 12 12 11 11 11 11 11 11 10 10 10 9 9 9 8 8 8 8 8 8 8 8 7 7 6 6 6 6 7 7 7 8 9 10 10 11 11 12 12 13 13 14 14 14 15 15 15 15 15
14 14 14 14 14 14 13 13 13 12 12 12 12 12 12 12 12 11 11 11 11 11 11 10 10 10 10 10 9 9 9 8 8 8 8 7 7 7 7 7 7 7 6 6 6 6 6 6 7 7 8 8 9 10 10 11 11 12 12 13 13 14 14 15 15 15 15 15 15
14 14 14 13 13 13 13 12 12 12 11 11 11 11 11 11 10 10 10 10 10 10 10 10 10 9 9 9 9 8 8 7 7 7 7 7 6 6 6 6 6 6 6 6 6 6 6 7 7 7 8 9 9 10 10 11 11 12 12 13 13 14 14 15 15 15 15 15 15
14 13 13 13 13 12 12 12 11 11 11 11 10 10 10 10 10 9 9 9 9 9 9 9 9 9 8 8 8 7 7 7 6 6 6 6 6 5 5 6 6 6 6 6 6 6 6 7 7 7 8 9 10 10 11 11 11 12 13 13 14 14 15 15 15 15 15 15 14
13 13 13 12 12 12 11 11 11 10 10 10 10 10 9 9 9 9 9 8 8 8 8 8 8 8 7 7 7 6 6 6 5 5 5 5 5 5 5 6 6 6 6 6 6 6 7 7 7 8 9 9 10 10 11 11 12 12 13 13 14 14 15 15 15 15 15 14 14
13 12 12 12 11 11 11 10 10 10 10 10 9 9 9 9 8 8 8 8 8 8 7 7 7 7 6 6 6 5 5 5 5 5 5 5 5 5 5 6 6 6 7 6 6 7 7 8 8 9 9 10 10 11 11 12 12 13 13 14 14 15 15 15 15 14 14 14 15
12 12 11 11 11 10 10 10 10 9 9 9 9 9 8 8 8 8 8 7 7 7 7 7 6 6 6 5 5 5 5 5 5 5 5 5 5 6 6 6 6 7 7 7 7 8 8 8 9 9 10 10 11 11 12 12 12 13 13 14 14 15 15 15 15 14 14 15 15
11 11 11 10 10 10 10 9 9 9 9 9 8 8 8 8 8 7 7 7 6 6 6 6 6 5 5 5 5 5 5 5 5 5 5 6 6 6 6 6 7 8 8 8 8 8 9 9 9 10 10 11 11 12 12 12 13 13 14 14 14 15 15 15 15 15 15 15 15
10 10 10 10 10 9 9 9 9 8 8 8 8 8 8 7 7 7 6 6 6 6 6 5 5 5 5 5 5 5 5 5 5 6 6 6 6 6 7 7 8 8 9 9 9 9 9 10 10 10 10 11 12 12 12 13 13 13 14 14 15 15 15 15 15 15 15 15 15
Wind_Direction
259 259 259 259 259 259 259 260 261 261 262 263 264 265 265 266 267 267 268 268 268 268 268 268 268 268 268 269 269 269 269 270 271 271 272 273 273 274 274 274 274 274 274 274 274 274 273 273 273 275 276 277 279 280 281 282 283 284 284 285 285 285 286 286 287 288 289 289 289
259 259 259 259 259 259 260 260 261 262 263 263 264 265 266 266 267 267 268 268 268 268 268 268 268 269 269 269 269 269 270 270 271 271 272 272 273 273 274 274 273 273 273 273 273 273 273 273 273 273 275 276 278 279 280 282 283 283 284 285 285 285 286 286 287 288 288 289 289
260 260 261 261 261 261 261 261 262 263 263 264 264 265 266 266 266 267 267 268 268 268 268 269 269 270 270 270 270 270 270 271 271 271 272 272 273 273 273 273 273 273 272 272 272 272 273 274 274 274 275 276 278 279 280 282 283 283 284 285 285 285 286 286 287 287 288 289 291
260 261 262 262 262 262 262 262 263 263 264 264 265 265 266 266 267 267 267 268 268 269 269 269 270 270 270 271 271 271 271 271 272 272 272 272 272 272 272 272 272 272 272 272 272 273 274 274 274 275 276 277 278 279 280 281 283 283 284 285 285 285 285 285 286 287 289 291 293
260 261 262 262 263 263 263 263 264 264 264 265 265 266 266 266 267 267 267 268 268 269 269 270 270 270 271 271 271 271 271 271 271 271 271 271 271 271 271 271 271 271 272 272 273 273 274 274 274 275 276 277 278 280 281 282 283 284 284 284 284 284 285 285 287 288 290 292 293
259 260 261 262 263 263 263 263 264 264 264 265 265 266 266 267 267 267 268 268 268 269 269 270 270 270 270 270 270 270 270 270 271 271 271 271 270 270 270 271 271 272 272 273 274 274 274 274 275 275 276 278 279 280 281 282 283 284 284 284 284 284 285 286 288 290 291 293 294
258 259 260 261 262 262 263 263 263 263 264 264 265 266 266 267 267 267 268 268 268 269 269 269 270 269 269 269 269 269 269 269 270 270 271 270 270 270 271 272 273 273 274 275 275 276 276 276 276 277 278 278 279 281 282 282 283 283 284 284 284 285 286 287 289 290 292 294 295
258 259 259 260 261 261 262 262 262 263 263 264 265 265 266 267 267 267 267 268 268 268 268 268 269 268 268 268 268 269 269 269 270 270 271 270 271 272 273 274 274 275 275 276 277 277 277 277 277 278 279 279 280 281 282 283 283 283 284 284 284 285 286 287 289 291 293 295 296
257 258 259 259 260 260 261 261 262 262 263 263 264 265 266 266 267 267 267 267 267 267 268 268 268 268 268 269 269 269 270 270 271 272 272 272 272 273 274 275 275 276 276 276 277 277 277 277 278 278 279 280 280 281 282 282 283 283 283 284 285 285 286 288 290 292 294 296 297
257 258 259 259 260 260 261 261 262 262 263 263 264 265 265 266 266 266 267 267 267 267 268 268 269 269 269 270 270 271 271 272 272 273 273 273 273 274 274 275 275 276 276 276 276 277 277 277 278 278 279 280 281 281 282 283 283 283 283 284 285 286 287 289 291 293 295 297 298
258 258 259 259 260 260 261 261 262 263 263 263 264 265 265 266 266 266 266 266 267 267 268 269 269 270 270 270 271 271 271 272 272 273 273 273 273 274 274 275 275 275 276 276 276 276 277 277 278 279 280 280 281 282 282 283 283 283 283 284 285 286 288 290 292 294 296 297 299
259 259 259 260 260 261 262 262 263 263 264 264 265 265 266 266 266 267 267 267 267 267 268 269 269 270 270 270 271 271 271 272 272 272 272 273 273 274 274 275 275 275 275 276 276 277 277 278 279 280 281 281 281 282 283 283 283 283 283 284 285 286 288 290 292 294 296 298 299
260 260 260 261 261 262 262 263 263 264 264 265 265 266 266 266 267 267 267 267 267 268 268 268 269 269 270 270 270 271 271 271 271 272 272 273 274 274 275 275 276 276 276 276 277 277 278 279 280 281 281 282 282 282 282 283 283 282 283 283 284 286 288 290 293 295 296 298 299
260 261 261 262 262 263 263 263 264 264 265 266 266 266 266 267 267 267 267 267 267 268 268 268 269 269 269 270 270 270 270 271 271 272 273 274 274 275 275 276 276 276 277 277 278 278 279 279 280 281 281 281 282 282 282 282 282 282 282 283 284 286 288 291 293 295 296 297 298
261 261 262 262 263 263 264 264 264 265 266 266 266 266 267 267 267 267 267 267 268 268 268 268 269 269 270 270 270 270 270 271 271 272 273 274 274 275 275 275 276 277 277 278 278 279 279 279 280 280 280 281 281 281 281 281 281 282 282 283 285 287 289 291 293 295 296 297 299
261 262 262 262 263 263 264 264 265 265 266 266 266 266 267 267 268 268 268 268 268 268 268 269 269 269 269 270 270 270 271 271 272 272 273 273 274 274 275 275 276 277 277 278 278 278 278 279 279 279 279 280 280 280 280 280 280 281 282 283 285 287 290 292 294 295 296 298 299
261 262 262 263 263 264 264 265 265 265 266 266 266 267 267 267 268 268 268 268 268 268 268 268 269 269 269 270 270 271 271 272 272 272 272 273 273 274 274 275 276 276 277 277 277 278 278 278 278 278 279 279 279 279 279 279 280 280 282 284 286 288 291 293 294 296 297 298 299
261 261 262 263 263 264 264 265 265 265 266 266 267 267 267 268 268 268 268 268 268 268 268 269 269 269 270 270 270 271 271 272 272 272 272 273 273 273 274 274 275 275 276 276 277 277 277 278 278 278 278 278 278 278 278 279 280 281 283 285 287 289 291 293 294 296 297 299 300
260 261 262 262 263 264 264 265 265 265 266 266 267 267 267 267 267 267 267 268 268 269 269 269 270 270 270 270 271 271 271 271 272 272 272 272 273 273 274 274 274 275 275 276 276 277 277 278 278 278 277 277 278 278 278 279 281 282 284 286 288 290 292 293 295 296 297 299 300
259 260 261 262 262 263 263 264 265 265 265 266 266 267 267 267 267 267 267 268 269 269 269 269 270 270 271 271 271 271 271 271 271 272 272 273 273 274 274 274 275 275 275 276 276 276 276 276 277 277 277 277 277 278 279 280 282 283 285 287 289 290 292 293 295 296 298 299 300
258 259 260 260 261 262 263 264 264 264 265 265 266 266 266 266 266 266 267 267 268 268 269 269 269 270 270 271 271 271 271 271 271 272 272 273 273 274 274 274 275 275 275 275 276 276 276 276 276 276 277 277 278 279 280 281 283 284 286 287 289 290 292 293 295 296 298 299 300
256 257 258 259 260 261 262 263 264 264 264 265 265 265 265 265 265 265 266 266 267 267 268 268 269 269 270 270 270 270 270 270 271 271 272 272 273 274 274 274 274 275 275 275 275 275 275 276 276 277 277 278 279 280 281 282 284 285 287 288 289 291 292 294 296 297 298 299 300
255 256 257 259 260 261 262 262 263 264 264 264 264 263 263 263 263 263 264 264 265 265 266 267 268 269 269 269 269 269 269 269 270 270 271 272 273 274 274 274 274 275 275 275 275 275 275 276 277 277 278 279 280 281 282 283 284 285 287 288 290 292 294 295 297 298 299 301 302
253 255 256 257 259 260 260 261 262 262 263 262 262 261 261 261 261 262 262 263 264 265 266 267 268 268 268 268 268 268 268 269 269 270 271 272 273 274 274 274 275 275 275 275 275 275 276 276 277 278 279 280 280 281 282 283 284 285 287 289 291 293 295 297 298 300 301 302 303
253 253 254 256 257 258 259 259 260 260 260 260 260 259 259 260 260 261 262 263 264 265 266 267 267 268 268 269 269 269 270 270 271 271 272 273 273 273 274 274 275 275 274 275 275 275 276 276 277 278 279 279 280 280 282 283 285 286 288 290 292 294 295 297 299 300 302 303 304
251 251 252 254 255 256 257 257 258 258 258 258 258 258 258 259 260 261 263 264 265 266 267 267 268 268 269 270 271 271 272 272 272 273 273 273 273 273 274 274 274 274 274 274 274 275 275 276 276 277 278 279 279 280 282 284 286 288 290 292 293 294 296 297 299 301 302 303 304
248 249 251 252 253 254 255 256 256 256 256 256 257 258 259 260 262 263 264 266 267 267 268 269 269 270 270 271 272 273 273 273 273 272 273 273 273 273 274 273 273 273 273 273 273 273 274 274 275 276 278 279 281 282 283 285 287 289 291 293 294 295 297 298 300 301 302 302 303
247 248 249 251 252 253 253 254 254 254 255 255 257 258 260 262 263 265 266 267 268 269 269 270 270 270 270 271 272 272 272 272 272 272 272 273 273 273 273 272 272 272 271 271 271 271 272 273 274 276 278 281 282 283 285 286 288 290 291 293 295 297 298 299 300 301 302 302 303
245 247 248 249 250 251 252 252 253 253 254 256 258 260 261 263 265 266 268 269 270 270 271 271 270 270 271 271 272 272 272 272 272 272 272 272 272 271 271 271 270 270 269 269 269 270 271 273 275 278 279 281 282 284 285 287 288 291 293 295 296 298 299 300 301 302 302 303 303
244 245 247 248 249 250 251 251 252 253 255 257 259 261 263 265 266 268 269 270 270 271 271 270 270 271 271 271 271 271 271 271 271 270 270 270 270 269 269 268 268 267 267 268 269 271 273 275 277 278 280 281 283 285 286 288 291 293 295 296 297 298 299 300 302 302 303 304 305
243 245 246 247 248 249 250 251 253 254 256 258 260 262 264 266 267 268 269 270 270 270 270 270 270 270 270 270 270 270 269 269 268 267 267 267 267 266 266 266 266 266 267 269 270 271 273 275 276 278 279 282 285 287 289 291 292 294 295 296 297 299 300 301 302 304 305 306 307
243 244 245 246 247 248 250 251 253 255 256 259 261 263 265 266 267 268 269 269 270 270 269 269 269 268 268 268 268 267 266 265 264 263 263 263 263 264 264 265 266 267 268 269 270 271 272 274 275 278 281 284 287 289 291 292 293 294 295 297 299 300 302 303 304 305 306 307 308
243 244 245 246 246 248 250 251 252 254 257 259 261 263 264 265 266 268 268 268 269 268 267 266 266 265 265 264 263 262 260 259 258 258 259 259 260 262 263 264 266 267 268 268 268 269 271 273 276 279 283 287 289 290 291 292 294 295 297 299 301 303 304 306 306 307 308 308 308
242 243 244 245 246 247 249 250 252 254 256 258 260 261 263 264 265 265 266 266 265 265 263 262 261 261 260 259 257 255 253 253 252 253 254 255 257 259 261 263 264 265 266 266 267 269 271 274 277 281 285 288 290 292 293 295 296 299 301 303 304 306 307 307 308 308 308 308 308
241 242 243 244 245 246 248 249 251 252 254 256 258 259 260 261 261 261 261 261 261 260 259 257 256 255 254 252 250 248 246 246 247 248 250 252 254 255 258 260 262 263 264 265 267 269 272 276 280 284 287 290 292 294 296 298 300 303 305 306 307 308 309 309 309 309 309 308 308
240 241 241 242 243 245 246 247 248 249 251 252 254 255 256 256 257 257 257 257 256 255 253 252 250 249 247 245 243 242 241 242 244 246 248 250 252 253 256 260 262 263 263 266 268 271 274 278 282 286 290 292 294 297 299 301 303 306 307 309 310 310 310 310 310 310 309 308 308
239 239 239 240 241 242 243 244 245 246 247 249 250 250 251 251 251 252 253 252 251 249 246 245 243 241 239 238 238 239 241 242 243 245 247 250 251 252 255 259 263 264 265 268 271 274 277 281 285 289 292 295 297 299 302 304 306 308 310 310 311 311 310 310 310 309 309 308 307
237 237 238 238 238 239 240 241 241 242 243 244 245 246 246 246 246 246 247 246 244 241 239 237 235 234 234 234 235 237 240 242 243 244 246 249 252 254 256 260 264 267 270 270 274 277 281 285 288 292 295 297 299 302 304 306 308 309 310 311 311 310 310 309 309 308 307 307 307
234 235 235 235 235 235 236 237 238 238 239 240 240 241 241 241 241 241 241 239 237 235 232 230 229 228 229 229 231 234 237 242 244 246 248 251 254 258 260 264 268 272 274 274 276 280 284 288 291 295 297 300 302 303 305 307 308 309 309 310 310 309 309 308 307 307 306 306 307
231 232 232 232 231 232 232 233 234 234 235 235 234 234 235 235 235 234 233 232 230 228 226 224 223 224 226 227 230 232 237 242 246 250 253 256 260 264 267 270 273 276 278 278 279 282 286 290 293 296 299 301 303 304 305 306 307 308 308 308 308 308 307 307 306 306 305 305 306
228 228 227 227 227 227 228 228 229 230 230 229 228 228 228 229 229 228 226 223 221 220 220 220 221 224 227 229 231 235 239 244 250 254 258 262 266 270 273 275 278 280 282 282 283 285 287 290 293 296 298 301 302 304 305 306 306 307 307 307 307 307 306 306 305 305 305 305 305